Temp
-16 -16 -16 -17 -17 -17 -17 -17 -17 -17 -17 -17 -17 -18 -17 -17 -17 -16 -16 -16 -16 -15 -15 -15 -14 -14 -14 -13 -12 -12 -11 -10 -10 -11 -12 -11 -10 -10 -9 -10 -10 -9 -10 -10 -10
-16 -17 -17 -17 -18 -18 -19 -20 -19 -20 -19 -18 -18 -18 -18 -18 -17 -17 -17 -17 -16 -16 -15 -15 -15 -14 -14 -13 -13 -12 -11 -10 -11 -12 -12 -12 -10 -10 -9 -10 -10 -10 -10 -10 -10
-16 -17 -17 -18 -20 -22 -22 -23 -22 -21 -21 -20 -20 -19 -19 -18 -17 -17 -18 -17 -16 -16 -15 -15 -15 -14 -14 -14 -13 -12 -11 -11 -12 -12 -13 -12 -11 -10 -10 -10 -11 -10 -10 -10 -10
-17 -17 -19 -22 -23 -24 -24 -24 -24 -23 -22 -21 -21 -20 -19 -18 -17 -18 -18 -18 -17 -16 -16 -15 -15 -14 -14 -13 -13 -12 -11 -11 -13 -12 -12 -12 -11 -10 -10 -11 -11 -11 -10 -10 -10
-17 -19 -23 -24 -25 -25 -25 -26 -26 -25 -23 -22 -22 -21 -20 -19 -18 -19 -18 -18 -17 -17 -16 -15 -15 -15 -14 -14 -13 -13 -12 -13 -13 -13 -12 -12 -11 -11 -10 -11 -11 -11 -11 -10 -10
-18 -22 -24 -25 -26 -26 -27 -27 -27 -26 -24 -23 -22 -21 -20 -19 -19 -19 -18 -18 -18 -18 -16 -16 -15 -15 -15 -14 -14 -13 -13 -13 -13 -13 -12 -11 -11 -11 -11 -12 -11 -11 -11 -11 -10
-20 -24 -25 -25 -26 -27 -27 -27 -27 -26 -25 -23 -23 -22 -20 -19 -19 -19 -19 -19 -18 -18 -17 -17 -16 -15 -15 -15 -14 -13 -13 -13 -13 -13 -12 -12 -11 -10 -12 -12 -12 -11 -11 -11 -10
-22 -25 -26 -26 -27 -27 -27 -27 -28 -27 -24 -24 -23 -22 -20 -20 -19 -19 -18 -18 -17 -18 -17 -17 -16 -16 -15 -15 -14 -14 -13 -13 -13 -13 -13 -13 -11 -11 -12 -12 -12 -11 -11 -11 -11
-24 -26 -26 -27 -27 -27 -27 -27 -28 -27 -24 -24 -23 -22 -21 -20 -19 -19 -19 -18 -17 -17 -17 -17 -16 -16 -15 -15 -14 -14 -13 -13 -14 -14 -13 -12 -11 -12 -12 -12 -11 -12 -12 -11 -11
-26 -26 -27 -27 -27 -27 -27 -27 -28 -26 -24 -24 -23 -22 -20 -20 -19 -19 -19 -18 -17 -17 -17 -17 -17 -16 -15 -15 -14 -14 -14 -14 -14 -14 -13 -12 -11 -12 -12 -12 -11 -12 -12 -12 -11
-26 -26 -27 -27 -27 -27 -27 -27 -27 -25 -24 -23 -22 -21 -20 -20 -20 -19 -18 -18 -18 -17 -17 -17 -17 -16 -15 -15 -15 -15 -14 -14 -14 -13 -13 -12 -12 -12 -12 -12 -12 -12 -12 -12 -12
-25 -26 -26 -27 -27 -27 -27 -27 -25 -24 -24 -23 -22 -21 -20 -20 -20 -19 -19 -17 -17 -17 -17 -17 -17 -17 -16 -16 -15 -15 -14 -14 -14 -14 -13 -12 -12 -12 -12 -12 -12 -12 -12 -12 -12
-23 -26 -26 -26 -26 -27 -27 -26 -24 -24 -23 -22 -22 -21 -20 -20 -19 -19 -18 -18 -18 -17 -17 -17 -17 -17 -16 -16 -16 -15 -15 -15 -14 -14 -13 -12 -12 -12 -12 -12 -12 -12 -12 -12 -11
-22 -24 -26 -26 -26 -27 -25 -24 -24 -24 -23 -22 -21 -21 -20 -19 -19 -19 -19 -19 -18 -18 -18 -17 -17 -17 -17 -16 -16 -15 -15 -15 -14 -14 -13 -13 -12 -13 -13 -13 -12 -12 -12 -12 -12
-21 -23 -25 -26 -26 -24 -24 -24 -24 -22 -22 -22 -21 -20 -20 -19 -19 -19 -19 -18 -18 -18 -18 -17 -17 -17 -17 -17 -16 -16 -15 -15 -14 -14 -13 -13 -12 -13 -13 -13 -13 -12 -12 -12 -12
-20 -21 -22 -23 -23 -23 -23 -23 -23 -22 -22 -21 -21 -20 -20 -19 -19 -19 -19 -19 -18 -18 -18 -18 -18 -17 -17 -17 -17 -17 -16 -16 -15 -14 -13 -13 -13 -13 -13 -13 -13 -13 -13 -12 -12
-20 -20 -21 -22 -22 -23 -23 -23 -22 -21 -21 -21 -20 -20 -19 -19 -19 -19 -19 -19 -18 -18 -18 -18 -18 -18 -18 -17 -17 -16 -16 -16 -15 -14 -13 -14 -14 -14 -14 -14 -14 -13 -13 -13 -12
-20 -20 -21 -20 -21 -21 -21 -21 -22 -20 -20 -20 -20 -19 -19 -19 -19 -19 -19 -19 -19 -18 -19 -18 -18 -18 -18 -17 -16 -16 -16 -16 -15 -15 -14 -14 -14 -14 -14 -14 -14 -13 -13 -13 -13
-19 -20 -20 -20 -20 -20 -20 -20 -20 -20 -20 -20 -20 -19 -19 -19 -19 -19 -19 -19 -19 -19 -18 -19 -18 -18 -17 -17 -16 -16 -16 -16 -15 -15 -15 -15 -15 -15 -15 -14 -14 -14 -13 -13 -13
-19 -19 -20 -20 -20 -20 -20 -20 -20 -20 -19 -19 -19 -19 -19 -19 -19 -20 -19 -19 -19 -19 -19 -18 -18 -17 -17 -17 -17 -17 -16 -16 -16 -15 -15 -15 -15 -15 -14 -14 -13 -13 -13 -14 -13
-19 -19 -19 -19 -19 -19 -20 -19 -19 -19 -20 -20 -20 -20 -19 -20 -20 -20 -20 -19 -19 -18 -18 -18 -18 -18 -17 -17 -17 -17 -17 -17 -16 -16 -16 -15 -16 -15 -14 -14 -13 -14 -14 -13 -13
-19 -19 -18 -19 -19 -19 -19 -19 -19 -20 -20 -20 -19 -19 -19 -19 -19 -19 -19 -19 -18 -18 -18 -18 -18 -18 -17 -17 -17 -17 -17 -17 -16 -16 -16 -15 -15 -14 -14 -14 -14 -14 -14 -14 -13
-19 -19 -19 -18 -19 -19 -19 -19 -19 -19 -19 -19 -19 -19 -19 -19 -19 -19 -19 -19 -19 -19 -18 -18 -18 -18 -18 -17 -17 -17 -17 -16 -16 -16 -16 -16 -15 -14 -15 -14 -14 -14 -14 -14 -14
-19 -19 -19 -19 -19 -19 -19 -19 -19 -19 -18 -18 -18 -19 -19 -19 -19 -18 -18 -18 -18 -18 -18 -18 -18 -17 -17 -17 -17 -16 -16 -16 -16 -16 -16 -16 -15 -15 -15 -14 -14 -15 -14 -14 -14
-19 -19 -20 -19 -19 -19 -19 -19 -18 -18 -18 -18 -18 -18 -19 -19 -18 -18 -18 -18 -18 -18 -18 -17 -17 -17 -17 -17 -17 -16 -16 -16 -16 -16 -16 -15 -15 -15 -15 -15 -15 -15 -14 -14 -14
-18 -19 -19 -19 -20 -20 -19 -19 -19 -18 -18 -18 -18 -19 -19 -18 -18 -18 -18 -18 -18 -18 -17 -17 -17 -17 -17 -17 -17 -17 -16 -16 -16 -16 -16 -15 -15 -15 -15 -15 -15 -15 -15 -15 -14
-18 -18 -19 -19 -19 -20 -20 -20 -20 -19 -19 -19 -18 -18 -19 -19 -18 -18 -18 -18 -18 -18 -17 -17 -17 -17 -16 -17 -17 -17 -16 -16 -16 -16 -16 -16 -15 -15 -15 -15 -15 -16 -15 -15 -15
Height
5659 5651 5643 5638 5630 5625 5620 5619 5620 5620 5626 5631 5635 5640 5645 5651 5657 5666 5681 5690 5688 5696 5705 5713 5721 5729 5736 5743 5749 5754 5760 5769 5778 5784 5790 5791 5793 5795 5801 5807 5809 5812 5816 5818 5819
5641 5632 5622 5613 5603 5596 5591 5589 5589 5593 5601 5610 5617 5625 5632 5639 5647 5658 5669 5670 5678 5689 5698 5706 5714 5721 5729 5735 5741 5746 5755 5765 5772 5777 5783 5785 5788 5790 5795 5801 5804 5808 5811 5813 5815
5623 5611 5599 5586 5576 5568 5561 5558 5559 5567 5575 5588 5598 5609 5620 5628 5638 5653 5647 5659 5670 5681 5689 5698 5705 5712 5721 5728 5736 5743 5751 5756 5764 5769 5776 5780 5782 5785 5788 5793 5799 5803 5806 5809 5811
5602 5588 5573 5563 5556 5548 5543 5537 5533 5540 5550 5566 5580 5594 5609 5619 5629 5633 5641 5648 5661 5671 5680 5691 5699 5708 5716 5724 5731 5738 5743 5748 5755 5760 5769 5773 5776 5779 5782 5790 5792 5797 5800 5803 5805
5580 5563 5553 5546 5539 5533 5528 5521 5519 5522 5531 5547 5564 5581 5595 5604 5614 5624 5631 5640 5651 5663 5674 5685 5694 5702 5710 5718 5724 5730 5736 5741 5747 5753 5760 5766 5771 5773 5779 5783 5786 5792 5795 5796 5798
5559 5544 5536 5532 5527 5523 5518 5512 5508 5509 5517 5531 5552 5569 5584 5596 5611 5618 5625 5635 5645 5656 5668 5678 5687 5696 5702 5710 5717 5723 5728 5734 5740 5747 5753 5759 5764 5766 5775 5778 5780 5786 5788 5789 5790
5540 5528 5523 5520 5517 5515 5511 5506 5501 5500 5508 5522 5542 5560 5576 5592 5604 5614 5621 5631 5639 5650 5662 5671 5679 5688 5696 5703 5710 5715 5722 5728 5736 5741 5745 5751 5759 5763 5769 5771 5774 5778 5782 5783 5786
5526 5516 5512 5510 5509 5507 5504 5501 5497 5495 5502 5516 5536 5555 5572 5590 5603 5613 5619 5627 5635 5643 5654 5662 5671 5680 5689 5697 5704 5709 5716 5723 5731 5736 5741 5746 5755 5757 5762 5766 5769 5770 5775 5778 5780
5515 5509 5506 5502 5501 5501 5499 5496 5493 5491 5498 5515 5536 5554 5572 5588 5600 5608 5617 5625 5632 5639 5647 5656 5665 5674 5683 5691 5698 5703 5712 5719 5725 5730 5735 5741 5747 5752 5756 5761 5764 5766 5768 5772 5775
5509 5504 5500 5497 5496 5495 5494 5492 5489 5488 5499 5516 5535 5554 5574 5588 5594 5604 5614 5622 5629 5636 5642 5650 5659 5669 5679 5687 5694 5700 5706 5713 5719 5725 5730 5735 5738 5747 5750 5753 5757 5760 5762 5764 5766
5506 5501 5498 5494 5492 5491 5491 5489 5487 5491 5503 5521 5539 5557 5570 5583 5592 5602 5613 5621 5631 5634 5641 5647 5656 5667 5676 5682 5689 5695 5700 5706 5712 5718 5723 5729 5730 5742 5745 5746 5750 5751 5753 5755 5759
5502 5497 5496 5494 5491 5490 5488 5485 5486 5495 5511 5528 5546 5562 5575 5584 5593 5603 5613 5619 5627 5628 5634 5644 5654 5660 5667 5674 5682 5688 5695 5701 5707 5711 5716 5722 5725 5734 5738 5740 5741 5743 5746 5748 5750
5500 5494 5494 5493 5490 5490 5487 5485 5492 5505 5522 5540 5556 5566 5577 5588 5595 5603 5612 5618 5624 5631 5635 5643 5651 5656 5663 5670 5678 5685 5691 5696 5701 5705 5709 5715 5719 5726 5730 5731 5733 5734 5738 5739 5741
5506 5495 5495 5494 5493 5491 5489 5493 5505 5519 5535 5549 5565 5573 5581 5587 5598 5605 5612 5619 5624 5629 5635 5641 5649 5654 5660 5666 5674 5680 5685 5690 5695 5699 5704 5708 5711 5719 5720 5721 5725 5728 5730 5731 5732
5521 5508 5503 5499 5496 5495 5499 5508 5522 5532 5543 5554 5559 5574 5582 5591 5601 5607 5613 5620 5624 5631 5636 5642 5647 5653 5659 5663 5668 5675 5680 5685 5689 5694 5698 5703 5705 5713 5712 5714 5717 5720 5722 5723 5723
5546 5530 5519 5511 5508 5511 5518 5528 5538 5546 5553 5563 5570 5579 5588 5595 5603 5608 5613 5619 5624 5630 5635 5640 5646 5651 5657 5662 5665 5670 5675 5680 5684 5688 5692 5698 5699 5702 5708 5708 5708 5711 5713 5714 5714
5564 5552 5543 5540 5537 5541 5543 5549 5554 5558 5564 5573 5579 5586 5592 5600 5604 5609 5615 5619 5624 5630 5635 5641 5645 5649 5653 5658 5663 5669 5673 5676 5681 5683 5687 5691 5694 5695 5700 5703 5703 5704 5705 5705 5706
5579 5569 5565 5562 5559 5560 5563 5564 5564 5570 5574 5579 5586 5592 5597 5601 5606 5611 5614 5620 5626 5631 5635 5641 5646 5650 5653 5657 5660 5665 5669 5671 5675 5679 5682 5686 5687 5690 5693 5696 5698 5698 5698 5699 5699
5592 5584 5579 5577 5573 5573 5574 5576 5575 5578 5584 5589 5592 5597 5602 5606 5611 5612 5616 5621 5625 5629 5634 5638 5643 5647 5650 5654 5658 5662 5665 5668 5670 5674 5677 5681 5683 5686 5687 5689 5691 5693 5694 5694 5692
5603 5596 5591 5587 5586 5586 5588 5589 5589 5593 5594 5597 5601 5604 5607 5610 5613 5615 5618 5623 5627 5630 5634 5638 5642 5645 5648 5651 5655 5658 5662 5665 5667 5671 5674 5677 5679 5681 5682 5682 5684 5685 5685 5684 5683
5611 5606 5602 5599 5598 5598 5598 5599 5599 5600 5602 5605 5606 5608 5611 5613 5615 5618 5622 5626 5628 5631 5634 5637 5640 5644 5645 5648 5651 5654 5657 5661 5664 5668 5671 5674 5676 5676 5677 5678 5678 5678 5677 5676 5674
5617 5613 5610 5608 5607 5605 5605 5605 5606 5606 5608 5609 5610 5612 5613 5614 5616 5619 5622 5625 5628 5631 5634 5636 5638 5640 5644 5647 5649 5653 5656 5660 5662 5666 5667 5669 5672 5671 5672 5672 5673 5673 5670 5668 5666
5620 5618 5615 5613 5612 5611 5610 5610 5611 5611 5611 5612 5612 5613 5614 5616 5618 5620 5622 5626 5628 5630 5633 5634 5637 5640 5643 5647 5649 5651 5653 5656 5659 5662 5663 5665 5667 5666 5668 5668 5666 5666 5665 5662 5657
5621 5618 5618 5617 5616 5615 5614 5614 5614 5614 5613 5613 5614 5614 5615 5617 5620 5622 5623 5625 5627 5629 5631 5633 5636 5639 5642 5644 5647 5649 5651 5654 5656 5658 5659 5662 5661 5663 5663 5663 5663 5662 5657 5653 5650
5620 5619 5618 5618 5617 5618 5617 5616 5615 5615 5614 5613 5613 5614 5615 5617 5619 5621 5624 5625 5627 5629 5631 5634 5636 5638 5641 5643 5645 5647 5649 5651 5653 5654 5657 5658 5657 5658 5660 5660 5658 5656 5654 5649 5643
5617 5617 5616 5616 5616 5616 5617 5617 5616 5615 5614 5614 5613 5614 5615 5617 5619 5620 5622 5625 5627 5629 5630 5633 5635 5637 5639 5641 5642 5644 5646 5648 5649 5651 5652 5654 5656 5657 5656 5655 5653 5651 5645 5641 5637
5614 5614 5614 5613 5613 5614 5614 5614 5615 5615 5615 5614 5614 5614 5615 5616 5618 5619 5621 5624 5626 5627 5629 5631 5633 5635 5637 5639 5640 5643 5643 5644 5646 5648 5650 5651 5653 5653 5652 5651 5648 5644 5640 5638 5634
Wind_Speed
61 61 62 61 64 65 62 58 60 63 59 53 53 48 45 42 48 52 54 52 55 52 50 52 54 54 51 50 50 50 49 46 42 39 31 35 38 40 37 33 33 33 29 28 29
66 68 70 71 72 67 58 57 63 66 64 59 57 53 47 44 43 45 53 56 57 52 50 49 51 54 54 51 51 51 49 44 43 40 34 36 39 39 39 35 35 32 30 30 28
73 76 78 75 60 51 54 55 57 59 63 63 60 57 49 42 43 40 52 58 54 53 52 50 49 50 54 54 51 51 48 47 43 41 36 36 37 39 40 39 34 32 31 29 26
81 84 72 52 48 49 47 48 42 49 58 65 60 59 51 45 43 48 46 52 55 52 53 50 49 48 48 53 52 50 48 48 46 44 40 39 40 41 43 38 37 32 30 29 26
86 79 51 44 39 39 37 32 31 35 50 63 61 59 55 58 31 45 46 45 52 52 52 50 48 48 45 44 45 46 46 42 40 42 40 41 43 45 42 39 39 32 32 32 31
84 63 43 37 31 29 28 28 25 30 47 58 60 58 57 56 49 41 44 43 41 48 52 51 48 47 46 45 43 44 44 38 36 36 38 41 45 46 41 39 39 36 35 36 35
78 46 41 33 27 25 25 25 24 19 41 52 56 57 56 53 42 39 38 38 35 41 47 49 48 48 46 45 46 46 44 41 36 34 39 43 45 45 41 41 40 39 36 38 37
64 36 32 28 26 25 22 22 24 16 37 49 53 54 53 46 39 41 29 37 33 45 45 48 48 49 46 46 46 48 46 42 37 34 40 44 43 45 42 41 40 41 40 38 37
51 27 26 25 25 25 19 18 23 15 36 49 51 51 48 40 36 36 35 36 33 39 43 49 50 51 49 47 46 47 46 43 39 38 40 44 43 43 42 40 41 41 41 39 36
41 25 19 20 15 22 17 18 20 12 37 50 51 49 46 38 33 40 31 34 29 28 37 45 49 49 50 48 48 47 45 42 40 40 40 43 45 41 42 42 42 41 42 42 42
38 23 19 19 15 12 16 17 10 20 40 50 50 49 52 28 34 37 32 31 23 23 30 35 48 49 47 48 46 45 44 42 42 42 42 43 47 41 42 43 42 43 44 45 44
34 23 19 17 13 13 11 16 12 36 49 48 46 46 45 28 29 27 30 26 31 30 24 32 34 45 46 47 48 48 45 41 38 40 43 42 45 41 40 43 45 46 45 46 46
41 17 12 15 11 8 13 10 32 49 48 43 40 37 35 33 33 32 25 30 32 29 21 24 27 30 43 46 44 44 43 39 40 41 43 41 42 38 38 40 42 43 43 44 45
45 23 13 14 11 13 15 32 51 52 43 46 36 37 29 35 36 25 23 30 28 25 24 20 23 21 28 35 39 39 40 39 39 41 42 41 42 35 37 39 40 40 40 41 42
62 42 28 18 15 22 33 53 55 46 44 52 25 31 34 29 37 28 25 28 29 28 24 28 24 21 21 25 29 34 35 35 35 37 38 37 40 27 31 35 35 34 35 38 40
70 66 46 32 31 36 50 55 49 41 43 36 29 28 27 29 26 24 29 31 34 23 23 28 25 25 23 24 27 26 29 28 28 29 33 27 32 27 23 29 31 32 32 35 38
58 61 58 57 56 47 45 43 35 28 41 37 31 29 26 27 24 19 24 27 31 27 27 29 24 22 25 23 25 24 26 27 27 27 28 23 25 26 21 23 27 30 32 35 36
53 49 47 36 30 27 22 24 22 36 32 27 28 26 26 27 23 19 20 25 27 26 24 25 26 22 22 25 26 25 26 26 26 23 23 20 22 23 21 19 25 31 33 34 35
50 41 39 33 23 24 26 22 35 28 27 28 26 22 20 20 18 17 20 22 24 24 24 20 25 24 25 25 24 23 24 22 21 21 20 19 17 20 22 23 24 25 26 29 33
41 43 36 28 31 26 22 15 21 20 22 20 19 15 14 15 15 18 23 22 20 19 20 21 19 20 22 22 22 22 22 22 20 20 18 16 14 18 21 23 23 23 23 24 27
34 37 37 31 23 22 14 18 19 18 18 15 11 10 12 11 11 18 16 17 16 16 15 20 21 18 18 19 20 20 19 20 18 16 14 13 13 18 21 21 22 23 22 27 29
24 28 28 28 24 17 13 11 13 13 11 9 8 9 12 14 12 15 16 15 13 14 13 14 16 17 15 14 14 15 15 13 14 14 12 14 14 17 20 18 19 21 26 30 34
14 15 22 22 24 18 17 13 12 9 9 8 6 4 8 12 14 14 14 13 12 13 13 14 14 12 13 12 13 13 14 13 13 13 13 13 16 17 14 15 19 23 27 31 31
10 9 11 14 16 18 15 15 15 12 4 4 3 2 4 9 12 11 11 11 12 12 13 12 11 10 11 11 11 12 13 14 14 14 14 12 17 11 10 13 18 19 25 24 26
6 5 5 7 7 7 8 7 8 6 8 3 4 4 8 12 11 11 11 11 12 13 12 11 11 11 11 11 12 14 15 14 13 13 11 10 12 9 11 18 19 17 20 23 25
6 7 3 3 7 4 5 7 6 5 4 4 5 2 9 9 11 10 12 13 14 13 12 12 12 10 10 10 13 14 15 13 13 11 11 12 9 11 14 10 12 17 18 22 26
7 9 8 5 6 7 6 3 3 5 2 2 2 3 6 10 9 11 9 10 12 13 14 12 11 11 11 12 14 14 15 13 13 12 13 10 9 12 8 9 12 15 15 16 18
Wind_Direction
313 310 307 302 296 291 281 272 261 254 250 246 242 239 238 235 231 229 224 224 224 222 223 221 222 221 221 222 223 225 226 225 224 226 223 236 239 244 244 240 239 239 235 239 246
314 311 307 305 300 296 284 270 256 249 240 234 233 234 231 231 227 226 222 225 222 219 223 221 222 222 223 224 224 227 227 227 230 231 227 235 240 243 244 238 236 236 237 235 239
315 312 310 307 301 288 279 271 261 243 238 226 225 225 225 224 227 219 221 222 222 218 220 220 220 219 221 225 226 228 229 232 235 236 229 232 239 242 244 241 238 237 237 240 245
317 315 314 304 294 289 290 284 266 241 231 222 219 218 217 219 230 216 218 222 221 219 217 219 220 218 220 220 228 228 230 234 236 236 232 232 237 240 242 242 242 238 239 239 242
320 318 310 302 297 291 301 294 270 237 222 217 214 212 208 212 207 204 212 220 218 219 217 218 220 220 219 219 222 225 227 232 238 238 233 230 235 234 237 239 244 242 242 243 242
323 320 306 302 289 293 310 313 290 242 217 211 208 207 206 213 215 219 218 215 215 214 217 215 218 220 220 221 223 223 226 231 235 235 229 226 227 231 232 237 244 243 242 244 246
324 322 305 303 286 291 306 317 314 252 215 205 202 203 203 204 207 213 221 214 218 206 214 216 216 219 219 221 222 225 227 230 232 230 225 221 222 228 228 234 240 247 245 247 248
329 319 305 296 285 291 304 318 324 247 205 196 193 196 198 198 202 205 212 209 209 207 208 211 213 216 218 221 222 227 228 230 231 228 223 221 218 225 228 233 239 246 248 249 253
337 323 316 291 281 293 311 310 318 261 193 186 185 190 191 190 196 202 208 210 201 206 205 211 213 214 217 220 222 226 229 230 233 231 226 225 223 225 233 234 237 244 252 254 255
344 344 320 331 307 301 309 311 310 237 181 175 177 182 177 177 201 198 202 205 198 199 205 209 213 216 218 221 224 226 230 230 233 235 231 230 230 227 235 239 240 243 250 255 255
342 348 356 339 329 323 312 325 299 170 169 168 170 175 173 164 171 180 196 191 179 211 215 209 214 215 218 221 226 229 231 231 233 236 235 233 236 233 240 243 245 248 251 254 258
341 332 316 343 340 331 339 348 146 153 159 161 166 172 176 166 166 174 180 190 181 189 178 201 206 211 215 220 223 228 232 235 238 239 239 239 240 243 245 245 249 251 254 257 259
359 341 322 341 342 348 349 106 142 144 149 150 159 168 176 178 177 192 182 202 199 192 197 202 205 211 215 221 225 229 234 238 240 241 243 242 245 248 248 250 251 253 254 256 257
17 19 5 2 18 2 91 126 137 138 139 148 146 170 162 179 182 186 190 192 195 197 194 179 191 195 209 217 224 230 234 239 243 245 247 249 248 251 253 253 253 255 258 260 261
30 35 42 38 44 98 118 131 133 129 146 158 137 156 157 152 170 177 179 191 194 193 197 196 198 213 205 207 211 221 228 234 238 244 247 249 251 245 252 258 260 258 259 261 262
35 41 44 63 83 103 124 134 131 125 134 161 167 167 164 168 172 181 180 188 192 181 188 203 204 209 183 196 212 217 220 223 228 236 243 248 255 257 248 252 256 258 256 256 258
31 38 49 75 79 97 119 130 125 141 141 140 150 162 166 175 181 183 189 191 189 187 197 196 207 203 212 214 216 225 226 232 234 236 246 246 252 258 249 238 245 252 254 255 257
31 35 53 52 55 79 111 132 128 140 148 150 144 158 164 174 178 188 194 193 195 198 198 194 202 208 215 220 223 226 227 231 238 240 245 243 242 249 250 240 236 246 252 256 260
26 37 44 58 57 76 88 133 133 138 138 146 149 150 163 169 184 189 168 177 188 189 197 192 202 208 218 221 223 225 229 232 234 233 234 234 234 238 246 250 250 250 258 266 268
28 35 44 62 62 70 88 104 122 126 136 140 152 154 160 165 173 174 170 172 179 187 195 202 206 211 217 218 221 220 222 225 225 224 226 225 234 247 252 259 267 274 271 271 278
35 39 41 58 76 71 84 100 109 127 134 135 141 141 155 167 169 163 165 180 188 193 198 209 213 215 217 214 211 212 216 218 218 222 226 229 244 251 257 262 266 269 278 288 288
34 46 49 48 60 70 74 103 94 115 126 120 129 154 159 167 171 169 171 182 196 203 201 196 197 202 201 196 192 191 201 209 222 229 244 255 253 249 254 267 270 281 284 286 285
27 39 49 58 57 66 81 97 100 101 121 119 119 147 190 195 184 175 193 191 187 184 186 189 189 182 179 180 183 191 205 220 233 242 252 266 259 251 260 271 288 290 291 301 306
27 37 45 43 54 59 69 92 70 67 132 191 217 145 175 172 179 191 186 178 182 185 185 190 192 189 190 195 201 216 225 233 243 253 259 257 252 254 280 288 285 299 310 310 307
14 17 21 17 31 29 60 66 30 54 55 74 192 217 172 170 180 186 192 190 187 187 196 198 200 202 202 207 218 228 239 245 254 258 246 231 242 277 284 286 294 292 310 324 317
306 312 318 353 348 5 335 358 1 14 53 67 67 139 182 186 191 190 196 197 200 202 202 202 205 208 215 223 234 242 247 253 248 231 224 218 228 255 274 306 315 325 314 315 324
269 284 295 297 295 300 306 305 319 339 339 174 141 80 209 203 202 203 204 213 214 213 214 213 213 221 232 234 241 249 256 243 225 209 209 214 234 252 278 326 343 329 338 331 334